www.pogodaiklimat.ru

Погода и климат >> Архив погоды >> Индия >> Bhuj-Rudramata


ПОГОДА в Bhuj-Rudramata

  • Прогноз погоды в Bhuj-Rudramata
  • Монитор погоды в Bhuj-Rudramata
  • Климат города

АРХИВ ПОГОДЫ в Bhuj-Rudramata

Время (UTC), дата Ветер
(напр.,м/с)
 
Видим.   Явления Облачность Т
(С)
Тd
(С)
f
(%)
Тe
(С)
Тes
(С)
Комфортность P
(гПа)
Po
(гПа)
Тmin
(С)
Tmax
(С)
R
(мм)
S
(см)
09 17.02 В 2 4000 м 4/0
[Ci fib]
+37.0 +15.5 28 +39 +50 очень
душно
1014.1 1014.0
12 17.02 В 2 4000 м 4/0
[Ci fib]
+36.4 +14.2 27 +37 +39 очень
жарко
1013.1 1013.0 +38.0
15 17.02 СВ 2 4000 м 4/0
[Ci fib]
+30.2 +15.3 40 +33 +33 душно 1015.5 1016.0
18 17.02 штиль 0 4000 м 4/0
[Ci fib]
+27.0 +14.3 46 +29 +29 жарко 1017.1 1017.0
21 17.02 штиль 0 4000 м 4/0
[Ci fib]
+25.2 +13.2 47 +27 +27 жарко 1016.4 1016.0
00 18.02 нст 1 4000 м 4/0
[Ci fib]
+22.4 +13.8 58 +26 +26 жарко 1015.6 1016.0
03 18.02 штиль 0 4000 м 4/0
[Ci fib]
+22.0 +14.9 64 +25 +28 комфорт 1017.5 1018.0 +20.5
06 18.02 В 2 4000 м ясно +33.0 +12.6 29 +33 +48 жарко 1017.8 1018.0
09 18.02 В 2 4000 м ясно +38.0 +11.8 21 +37 +50 очень
жарко
1014.8 1015.0
12 18.02 нст 1 4000 м ясно +38.2 +15.6 26 +40 +41 очень
душно
1013.5 1014.0 +39.0
15 18.02 штиль 0 4000 м ясно +31.6 +13.3 33 +33 +33 жарко 1015.4 1015.0
18 18.02 ЮЗ 2 4000 м ясно +27.4 +13.6 43 +29 +29 жарко 1016.4 1016.0
21 18.02 нст 1 4000 м ясно +25.4 +13.5 48 +28 +28 жарко 1016.0 1016.0
00 19.02 ЮЗ 2 4000 м ясно +23.2 +14.0 56 +27 +27 душно 1015.3 1015.0
03 19.02 ЮЗ 1 4000 м ясно +23.0 +13.4 55 +26 +29 жарко 1017.2 1017.0 +21.2
06 19.02 С 1 4000 м ясно +32.4 +12.2 29 +33 +48 жарко 1017.4 1017.0
09 19.02 С 2 4000 м ясно +37.0 +9.4 19 +36 +49 очень
жарко
1013.9 1014.0
12 19.02 СЗ 2 4000 м ясно +35.2 +7.2 18 +33 +35 жарко 1012.7 1013.0 +37.5
15 19.02 штиль 0 4000 м ясно +30.6 +12.8 34 +32 +32 жарко 1014.4 1014.0
18 19.02 З 2 4000 м ясно +24.0 +11.7 46 +26 +26 жарко 1013.8 1014.0
21 19.02 штиль 0 4000 м ясно +22.0 +13.0 57 +25 +25 комфорт 1013.0 1013.0
00 20.02 штиль 0 4000 м ясно +21.0 +19.1 89 +25 +25 комфорт 1010.9 1011.0
03 20.02 З 3 4000 м 5/5 600 м
[Sc]
+22.0 +20.0 88 +28 +29 душно 1012.2 1012.0 +20.3
06 20.02 З 4 4000 м ясно +28.6 +18.3 54 +33 +42 очень
душно
1012.9 1013.0
09 20.02 З 4 4000 м ясно +32.4 +9.0 24 +31 +40 жарко 1009.3 1009.0
12 20.02 СЗ 6 4000 м ясно +30.8 +7.3 23 +30 +30 жарко 1008.0 1008.0 +33.0
15 20.02 З 3 4000 м ясно +24.2 +8.1 36 +25 +25 комфорт 1009.8 1010.0
18 20.02 З 2 4000 м ясно +20.2 +15.5 74 +24 +24 комфорт 1010.2 1010.0
21 20.02 нст 1 4000 м ясно +18.4 +14.6 79 +20 +20 1009.8 1010.0
00 21.02 ЮЗ 2 4000 м ясно +18.0 +16.0 88 +19 +19 1008.8 1009.0
03 21.02 штиль 0 4000 м ясно +19.0 +16.3 84 +20 +23 1010.3 1010.0 +17.0
06 21.02 З 2 4000 м ясно +27.0 +12.2 40 +28 +43 жарко 1010.9 1011.0
09 21.02 З 3 4000 м ясно +30.0 +8.2 26 +29 +40 жарко 1008.4 1008.0
12 21.02 ЮЗ 3 4000 м ясно +30.4 +8.4 25 +30 +31 жарко 1007.3 1007.0 +32.6
15 21.02 З 2 4000 м ясно +23.0 +12.5 52 +26 +26 жарко 1009.6 1010.0
18 21.02 З 1 4000 м ясно +19.4 +14.6 74 +22 +22 комфорт 1010.5 1011.0
21 21.02 З 1 4000 м ясно +18.0 +15.6 86 +19 +19 1010.1 1010.0
00 22.02 штиль 0 4000 м ясно +17.4 +15.4 88 +17 +17 1009.2 1009.0
03 22.02 нст 1 4000 м ясно +18.2 +15.9 86 +20 +22 1012.2 1012.0 +16.5
06 22.02 СЗ 3 4000 м ясно +26.4 +12.2 41 +28 +40 жарко 1013.8 1014.0
09 22.02 З 2 4000 м ясно +32.0 +10.0 26 +32 +44 жарко 1011.2 1011.0
12 22.02 З 2 4000 м ясно +32.8 +8.1 22 +31 +33 жарко 1009.9 1010.0 +35.6
15 22.02 З 2 4000 м ясно +25.6 +15.4 53 +29 +29 душно 1012.5 1013.0
18 22.02 З 2 4000 м ясно +21.2 +18.0 82 +25 +25 комфорт 1013.8 1014.0
21 22.02 нст 1 4000 м ясно +19.6 +17.3 87 +23 +23 комфорт 1013.3 1013.0
00 23.02 З 2 4000 м ясно +18.8 +17.2 90 +21 +21 комфорт 1012.9 1013.0
03 23.02 штиль 0 4000 м ясно +18.4 +16.7 90 +19 +22 1014.9 1015.0 +17.0
06 23.02 З 2 4000 м ясно +28.4 +8.3 28 +28 +43 жарко 1016.1 1016.0
09 23.02 С 2 4000 м ясно +32.0 +5.2 19 +30 +43 жарко 1013.8 1014.0
12 23.02 СВ 2 4000 м ясно +32.6 +7.7 21 +31 +33 жарко 1012.9 1013.0 +35.0
15 23.02 штиль 0 4000 м ясно +25.0 +8.2 34 +25 +25 комфорт 1014.4 1014.0
18 23.02 З 2 4000 м ясно +23.4 +5.7 32 +24 +24 комфорт 1015.8 1016.0
21 23.02 штиль 0 4000 м ясно +21.0 +5.9 37 +22 +22 комфорт 1015.0 1015.0
00 24.02 З 1 4000 м ясно +19.0 +6.7 45 +21 +21 комфорт 1014.4 1014.0
03 24.02 штиль 0 4000 м ясно +18.4 +8.8 54 +19 +22 1017.1 1017.0 +17.0

 

Местоположение метеостанции Bhuj-Rudramata (Gujarat, Индия): широта 23.25 долгота 69.67 высота над уровнем моря 80 м.

В архиве по умолчанию представлена погода в Bhuj-Rudramata за последнюю неделю. Архивные данные за месяц целиком и за предыдущие месяцы, начиная с января 2011 года, Вы можете получить, выбрав интересующий диапазон дат из раскрывающегося списка и нажав кнопку "Ввод!".

Внимание! Время в таблицах - всемирное. Для получения местного времени необходимо прибавить поправку, которая в Bhuj-Rudramata равна 5.5 ч.

Смотрите также архив погоды в соседних городах и на ближайших метеорологических станциях:

Погода в Kandla (Gujarat, Индия) (47 км)
Погода в New Kandla (Gujarat, Индия) (63 км)
Погода в Mandvi (Gujarat, Индия) (63 км)
Погода в Naliya (Gujarat, Индия) (84 км)
Погода в Okha (Gujarat, Индия) (103 км)
Погода в Dwarka (Gujarat, Индия) (115 км)
Погода в Rajkot (Gujarat, Индия) (155 км)
Погода в Badin (Пакистан) (172 км)
Погода в Porbandar (Gujarat, Индия) (178 км)
Погода в Surendranagar (Gujarat, Индия) (206 км)

Пояснения к столбцам:

Ветер - указаны скорость ветра в м/с - средняя за 10 мин, порывы в срок и между сроками (в фигурных скобках) и направление, откуда дует ветер: С - северный, СВ - северо-восточный, В - восточный, ЮВ - юго-восточный, Ю - южный, ЮЗ - юго-западный, З - западный, СЗ - северо-западный.
Видимость - горизонтальная дальность видимости в метрах или километрах. При видимости от 1 до 10 км при отсутствии осадков обычно наблюдается дымка, при ухудшении видимости до 1 км и менее - туман. В сухую погоду видимость может ухудшаться дымом, пылью или мглою.
Явления - указаны атмосферные явления, наблюдавшиеся в срок или в последний час перед сроком; фигурными скобками обозначены явления, наблюдавшиеся между сроками (за 1-3 часа до срока); квадратными скобками обозначены град или гололедные отложения с указанием их диаметра в мм.
Облачность - указаны через наклонную черту общая и нижняя облачность в баллах и высота нижней границы облаков в метрах; квадратными скобками обозначены формы облаков: Ci - перистые, Cs - перисто-слоистые, Cc - перисто-кучевые, Ac - высококучевые, As - высокослоистые, Sc - слоисто-кучевые, Ns - слоисто-дождевые, Cu - кучевые, Cb - кучево-дождевые. Подробнее классификацию облаков см. в Атласе облаков (PDF).
T - Температура воздуха - температура, измеренная на высоте 2 м над землей.
Td - Температура точки росы - температура, при понижении до которой содержащийся в воздухе водяной пар достигнет насыщения.
f - Относительная влажность воздуха - влажноcть воздуха, измеренная на высоте 2 м над землей.
Te - Эффективная температура - температура, которую ощущает одетый по сезону человек в тени. Характеристика душности погоды. При расчете учитывается влияние влажности воздуха и скорости ветра на теплоощущения человека.
Tes - Эффективная температура на солнце - температура, которую ощущает человек, с поправкой на солнечный нагрев. Характеристика знойности погоды. Зависит от высоты солнца над горизонтом, облачности и скорости ветра. Ночью, в пасмурную погоду, а также при ветре 12 м/с и более поправка равна нулю.
P - Атмосферное давление - приведенное к уровню моря атмосферное давление.
Po - Атмосферное давление - измеренное на уровне метеостанции атмосферное давление.
Tmin - Минимальная температура - минимум температуры воздуха на высоте 2 м над землей.
Tmax - Максимальная температура - максимум температуры воздуха на высоте 2 м над землей.
R - Количество осадков - Количество выпавших осадков, мм. При наведении курсора мыши на число - период времени, за который выпало указанное количество осадков.
S - Снежный покров - Высота снежного покрова, см. При наведении курсора мыши на число - состояние снежного покрова и степень покрытия местности в баллах.